| time (UTC) | temp F | wind direction | speed MPH | gust MPH | rain 1hr in | rain 24hr in | rain mn in | humidity % | barometer mb |
| 20260901074739 | 55 | 9 | 0.0 | 0.0 | 0.00 | 0.21 | 0.00 | 85 | 1014.0 |
| 20260901073757 | 55 | 9 | 0.0 | 0.0 | 0.00 | 0.21 | 0.00 | 86 | 1014.0 |
| 20260901072731 | 54 | 9 | 0.0 | 0.0 | 0.00 | 0.21 | 0.00 | 87 | 1014.0 |
| 20260901071750 | 54 | 9 | 0.0 | 0.0 | 0.00 | 0.21 | 0.00 | 86 | 1014.0 |
| 20260901070758 | 55 | 9 | 0.0 | 0.0 | 0.00 | 0.21 | 0.00 | 86 | 1013.9 |
| 20260901064702 | 54 | 9 | 0.0 | 3.0 | 0.00 | 0.21 | 0.00 | 86 | 1013.9 |
| 20260901063659 | 55 | 9 | 0.0 | 0.0 | 0.00 | 0.21 | 0.00 | 86 | 1013.9 |
| 20260901062710 | 55 | 9 | 0.0 | 0.0 | 0.00 | 0.21 | 0.00 | 85 | 1014.0 |
| 20260901061707 | 55 | 9 | 0.0 | 0.0 | 0.00 | 0.21 | 0.00 | 86 | 1013.9 |
| 20260901060729 | 55 | 9 | 0.0 | 0.0 | 0.00 | 0.21 | 0.00 | 86 | 1013.8 |
| 20260901055739 | 55 | 9 | 0.0 | 0.0 | 0.00 | 0.21 | 0.21 | 85 | 1013.7 |
| 20260901054731 | 55 | 9 | 4.0 | 0.0 | 0.00 | 0.21 | 0.21 | 86 | 1013.4 |
| 20260901053713 | 55 | 5 | 4.0 | 9.0 | 0.00 | 0.21 | 0.21 | 87 | 1013.1 |
| 20260901052700 | 55 | 355 | 0.0 | 1.0 | 0.00 | 0.21 | 0.21 | 87 | 1013.2 |
| 20260901051638 | 55 | 355 | 0.0 | 0.0 | 0.00 | 0.21 | 0.21 | 88 | 1013.6 |
| 20260901050605 | 55 | 355 | 0.0 | 7.0 | 0.00 | 0.21 | 0.21 | 87 | 1013.6 |
| 20260901045534 | 55 | 355 | 0.0 | 2.0 | 0.00 | 0.21 | 0.21 | 88 | 1013.5 |
| 20260901043346 | 56 | 355 | 0.0 | 0.0 | 0.00 | 0.21 | 0.21 | 87 | 1013.6 |
| 20260901042339 | 55 | 355 | 0.0 | 0.0 | 0.00 | 0.21 | 0.21 | 89 | 1013.6 |
| 20260901041340 | 56 | 355 | 0.0 | 7.0 | 0.00 | 0.21 | 0.21 | 88 | 1013.9 |
| 20260901040347 | 56 | 355 | 0.0 | 0.0 | 0.00 | 0.21 | 0.21 | 89 | 1013.5 |
| 20260901035410 | 56 | 355 | 0.0 | 0.0 | 0.00 | 0.21 | 0.21 | 89 | 1013.6 |
| 20260901034419 | 56 | 355 | 0.0 | 0.0 | 0.00 | 0.21 | 0.21 | 89 | 1013.4 |
| 20260901033433 | 56 | 355 | 0.0 | 0.0 | 0.00 | 0.21 | 0.21 | 89 | 1013.2 |
| 20260901032456 | 56 | 355 | 0.0 | 0.0 | 0.00 | 0.21 | 0.21 | 90 | 1013.3 |
| 20260901031505 | 56 | 355 | 0.0 | 0.0 | 0.00 | 0.21 | 0.21 | 90 | 1013.0 |
| 20260901030459 | 56 | 355 | 0.0 | 0.0 | 0.00 | 0.21 | 0.21 | 91 | 1012.8 |
| 20260901025509 | 57 | 355 | 0.0 | 0.0 | 0.00 | 0.21 | 0.21 | 91 | 1012.6 |
| 20260901024446 | 57 | 355 | 0.0 | 0.0 | 0.00 | 0.21 | 0.21 | 91 | 1012.6 |
| 20260901023439 | 57 | 355 | 0.0 | 0.0 | 0.00 | 0.21 | 0.21 | 91 | 1012.5 |
| 20260901022405 | 57 | 355 | 0.0 | 0.0 | 0.00 | 0.21 | 0.21 | 90 | 1012.3 |
| 20260901021425 | 58 | 355 | 0.0 | 0.0 | 0.00 | 0.21 | 0.21 | 89 | 1012.1 |
| 20260901020406 | 58 | 355 | 0.0 | 0.0 | 0.00 | 0.21 | 0.21 | 89 | 1012.0 |
| 20260831194159 | 60 | 9 | 0.0 | 0.0 | 0.00 | 0.32 | 0.17 | 85 | 1013.0 |
| 20260831193154 | 59 | 9 | 4.0 | 0.0 | 0.00 | 0.32 | 0.17 | 88 | 1012.7 |
| 20260831192138 | 58 | 355 | 11.0 | 18.0 | 0.06 | 0.32 | 0.17 | 90 | 1012.3 |
| 20260831191122 | 58 | 345 | 9.0 | 18.0 | 0.13 | 0.32 | 0.16 | 89 | 1012.1 |
| 20260831190051 | 59 | 0 | 0.0 | 4.0 | 0.16 | 0.29 | 0.13 | 89 | 1013.6 |
| 20260831185028 | 59 | 0 | 0.0 | 0.0 | 0.09 | 0.26 | 0.10 | 87 | 1013.9 |
| 20260831184002 | 59 | 0 | 0.0 | 1.0 | 0.04 | 0.25 | 0.09 | 87 | 1013.9 |
| 20260831182944 | 60 | 0 | 0.0 | 3.0 | 0.05 | 0.24 | 0.08 | 85 | 1013.8 |
| 20260831181954 | 60 | 0 | 0.0 | 2.0 | 0.00 | 0.23 | 0.06 | 85 | 1013.6 |
| 20260831180952 | 60 | 0 | 0.0 | 0.0 | 0.00 | 0.22 | 0.06 | 85 | 1013.5 |
| 20260831175932 | 60 | 0 | 0.0 | 0.0 | 0.06 | 0.22 | 0.06 | 82 | 1013.4 |
| 20260831174943 | 62 | 0 | 3.0 | 9.0 | 0.00 | 0.21 | 0.05 | 75 | 1013.2 |
| 20260831173938 | 62 | 0 | 4.0 | 11.0 | 0.00 | 0.20 | 0.04 | 73 | 1013.2 |
| 20260831172941 | 63 | 0 | 4.0 | 10.0 | 0.00 | 0.20 | 0.04 | 72 | 1013.0 |
| 20260831172000 | 63 | 0 | 4.0 | 11.0 | 0.00 | 0.20 | 0.04 | 73 | 1012.8 |
| 20260831165931 | 63 | 0 | 4.0 | 10.0 | 0.00 | 0.20 | 0.04 | 74 | 1012.7 |
| 20260831164900 | 63 | 0 | 6.0 | 13.0 | 0.00 | 0.20 | 0.04 | 72 | 1012.5 |
| 20260831163852 | 63 | 0 | 6.0 | 11.0 | 0.00 | 0.20 | 0.04 | 70 | 1012.3 |
| 20260831162911 | 64 | 0 | 7.0 | 13.0 | 0.00 | 0.20 | 0.04 | 70 | 1012.3 |
| 20260831161845 | 64 | 0 | 3.0 | 13.0 | 0.00 | 0.20 | 0.04 | 70 | 1012.2 |
| 20260831160851 | 63 | 0 | 4.0 | 13.0 | 0.00 | 0.20 | 0.04 | 69 | 1012.2 |
| 20260831154806 | 63 | 0 | 3.0 | 11.0 | 0.00 | 0.20 | 0.04 | 71 | 1012.1 |
| 20260831153748 | 62 | 255 | 1.0 | 9.0 | 0.00 | 0.20 | 0.04 | 71 | 1012.2 |
| 20260831152716 | 62 | 253 | 0.0 | 0.0 | 0.00 | 0.20 | 0.04 | 72 | 1012.2 |
| 20260831151706 | 62 | 252 | 0.0 | 8.0 | 0.00 | 0.20 | 0.04 | 72 | 1012.2 |
| 20260831150640 | 61 | 246 | 0.0 | 10.0 | 0.00 | 0.20 | 0.04 | 74 | 1012.1 |
| 20260831145625 | 61 | 238 | 0.0 | 0.0 | 0.00 | 0.20 | 0.04 | 74 | 1012.2 |
| 20260831144624 | 60 | 238 | 0.0 | 8.0 | 0.00 | 0.20 | 0.04 | 76 | 1012.1 |
| 20260831143600 | 60 | 209 | 0.0 | 0.0 | 0.00 | 0.20 | 0.04 | 76 | 1011.8 |
| 20260831141432 | 59 | 132 | 0.0 | 0.0 | 0.00 | 0.20 | 0.04 | 76 | 1010.7 |
| 20260831140434 | 59 | 132 | 0.0 | 0.0 | 0.00 | 0.20 | 0.04 | 77 | 1010.7 |
| 20260831135458 | 59 | 132 | 0.0 | 0.0 | 0.00 | 0.20 | 0.04 | 77 | 1010.6 |
| 20260831134449 | 59 | 132 | 0.0 | 0.0 | 0.00 | 0.20 | 0.04 | 78 | 1010.3 |
| 20260831133430 | 58 | 125 | 0.0 | 0.0 | 0.00 | 0.20 | 0.04 | 75 | 1010.0 |
| 20260831131332 | 59 | 98 | 0.0 | 0.0 | 0.00 | 0.20 | 0.04 | 74 | 1009.4 |
| 20260831130352 | 59 | 100 | 0.0 | 6.0 | 0.00 | 0.20 | 0.04 | 73 | 1009.2 |
| 20260831125353 | 58 | 50 | 0.0 | 0.0 | 0.00 | 0.20 | 0.04 | 76 | 1009.0 |
| 20260831123235 | 59 | 23 | 8.0 | 14.0 | 0.00 | 0.20 | 0.04 | 76 | 1008.7 |
| 20260831122242 | 58 | 49 | 9.0 | 15.0 | 0.00 | 0.20 | 0.04 | 76 | 1008.7 |
| 20260831121210 | 58 | 46 | 10.0 | 15.0 | 0.00 | 0.20 | 0.04 | 78 | 1008.6 |
| 20260831120141 | 58 | 49 | 10.0 | 14.0 | 0.00 | 0.20 | 0.04 | 78 | 1008.8 |
| 20260831115137 | 58 | 45 | 11.0 | 13.0 | 0.00 | 0.20 | 0.04 | 80 | 1008.8 |
| 20260831114111 | 57 | 22 | 8.0 | 11.0 | 0.00 | 0.20 | 0.04 | 81 | 1008.9 |
| 20260831113114 | 57 | 16 | 11.0 | 14.0 | 0.00 | 0.20 | 0.04 | 80 | 1008.9 |
| 20260831112050 | 58 | 38 | 11.0 | 16.0 | 0.00 | 0.20 | 0.04 | 80 | 1009.1 |
| 20260831105954 | 57 | 45 | 13.0 | 18.0 | 0.00 | 0.20 | 0.04 | 82 | 1009.6 |
| 20260831105013 | 56 | 44 | 7.0 | 18.0 | 0.00 | 0.20 | 0.04 | 87 | 1009.3 |
| 20260831104022 | 57 | 349 | 0.0 | 0.0 | 0.00 | 0.20 | 0.04 | 88 | 1010.9 |
| 20260831102948 | 57 | 349 | 0.0 | 0.0 | 0.00 | 0.20 | 0.04 | 87 | 1011.0 |
| 20260831100823 | 57 | 56 | 0.0 | 0.0 | 0.00 | 0.20 | 0.04 | 89 | 1011.3 |
| 20260831095803 | 57 | 107 | 0.0 | 0.0 | 0.00 | 0.20 | 0.04 | 88 | 1011.0 |
| 20260831094732 | 56 | 107 | 0.0 | 0.0 | 0.00 | 0.20 | 0.04 | 86 | 1010.9 |
| 20260831093715 | 56 | 107 | 0.0 | 0.0 | 0.00 | 0.20 | 0.04 | 87 | 1010.7 |
| 20260831091603 | 56 | 107 | 0.0 | 0.0 | 0.00 | 0.20 | 0.04 | 87 | 1010.7 |
| 20260831090601 | 57 | 107 | 0.0 | 0.0 | 0.00 | 0.20 | 0.04 | 86 | 1010.6 |
| 20260831085604 | 57 | 107 | 0.0 | 0.0 | 0.00 | 0.20 | 0.04 | 84 | 1010.4 |
| 20260831084624 | 57 | 107 | 0.0 | 0.0 | 0.00 | 0.20 | 0.04 | 83 | 1010.4 |
| 20260831082435 | 57 | 169 | 0.0 | 3.0 | 0.00 | 0.20 | 0.04 | 83 | 1010.8 |
| 20260831081447 | 58 | 166 | 3.0 | 0.0 | 0.00 | 0.20 | 0.04 | 80 | 1010.8 |
| 20260831080508 | 58 | 344 | 13.0 | 17.0 | 0.06 | 0.20 | 0.04 | 78 | 1010.5 |
| 20260831075500 | 60 | 348 | 10.0 | 18.0 | 2.25 | 0.18 | 0.02 | 72 | 1010.5 |